Regional Weather Roundup
Issued by NWS Upton, NY

Current Version | Previous Version | Graphics & Text | Print | Product List | Glossary Off
Versions: 1 2 3 4 5 6 7 8 9 10 11 12 13 14 15 16 17 18 19 20 21 22 23 24 25 26 27 28 29 30 31 32 33 34 35 36 37 38 39 40 41 42 43 44 45 46 47 48 49 50

000
ASUS41 KOKX 181307
RWROKX

REGIONAL WEATHER ROUNDUP
NATIONAL WEATHER SERVICE NEW YORK NY
900 AM EDT SAT APR 18 2015

NOTE: "FAIR" INDICATES FEW OR NO CLOUDS BELOW 12,000 FEET WITH NO
SIGNIFICANT WEATHER AND/OR OBSTRUCTIONS TO VISIBILITY.

NYZ071-072-176-178-NJZ106-104-181400-
NEW YORK CITY METRO AREA


CITY           SKY/WX    TMP DP  RH WIND       PRES   REMARKS
CENTRAL PARK   SUNNY     63  44  50 W3        30.03S
LAGUARDIA APRT MOSUNNY   62  45  53 NW5       30.00R
KENNEDY INTL   MOSUNNY   64  46  52 W3        30.01S
NEWARK/LIBERTY MOSUNNY   66  47  50 W6        30.00S
BRNX BOT. GARD   N/A     64  45  48 W8        30.01S
TETERBORO      SUNNY     62  46  55 CALM      29.99S
$$

NYZ177-179-078>081-181400-
LONG ISLAND NEW YORK

CITY           SKY/WX    TMP DP  RH WIND       PRES   REMARKS
FARMINGDALE    SUNNY     63  47  55 W5        30.00S
ISLIP          SUNNY     63  48  58 SW3       29.98S
SHIRLEY        SUNNY     65  49  56 W3        29.99F
WESTHAMPTON    SUNNY     62  50  64 N5        30.00S
MONTAUK POINT    N/A     57  47  69 W6        29.99R
$$

NYZ052-065-067-181400-
HUDSON VALLEY

CITY           SKY/WX    TMP DP  RH WIND       PRES   REMARKS
WHITE PLAINS   SUNNY     62  46  55 NW6       29.99S
NEWBURGH       SUNNY     57  50  77 W9        30.00S
MONTGOMERY     SUNNY     60  49  66 S6        29.98F
POUGHKEEPSIE   SUNNY     56  47  71 CALM      29.98S
ALBANY         SUNNY     55  46  71 CALM      29.98R
$$

NJZ001-105-106-008-010-013-015-019>022-104-181400-
NEW JERSEY

CITY           SKY/WX    TMP DP  RH WIND       PRES   REMARKS
NEWARK/LIBERTY MOSUNNY   66  47  50 W6        30.00S
TETERBORO      SUNNY     62  46  55 CALM      29.99S
CALDWELL       SUNNY     60  46  59 CALM      30.01S
MORRISTOWN     SUNNY     61  50  67 CALM      30.02R
SOMERVILLE     SUNNY     60  49  66 CALM      30.00S
SUSSEX         SUNNY     56  48  74 S3        30.01F
ANDOVER          N/A     58  49  72 CALM      30.02R
TRENTON        SUNNY     63  50  62 W3        30.02R
MILLVILLE      SUNNY     66  53  63 NE6       30.02R
ATLANTIC CITY  SUNNY     66  47  50 NE10      30.02R
WRIGHTSTOWN    SUNNY     66  50  55 N2        29.99R
TOMS RIVER     SUNNY     63  50  63 N3        30.02S
BELMAR         SUNNY     63  48  59 W3        30.01F
$$

PAZ047>061-062-071-181400-
EASTERN PENNSYLVANIA

CITY           SKY/WX    TMP DP  RH WIND       PRES   REMARKS
PHILADELPHIA   MOSUNNY   65  51  60 CALM      30.03S
ALLENTOWN      SUNNY     58  51  78 CALM      30.03S
SCRANTON       SUNNY     53  47  79 W3        30.02S
$$

CTZ002-004>006-009-010-012-RIZ004-006-007-MAZ004-011-015-181400-
SOUTHERN NEW ENGLAND
 IN CT

CITY           SKY/WX    TMP DP  RH WIND       PRES   REMARKS
BRADLEY INTL   SUNNY     59  46  62 SE3       29.96S
HARTFORD       SUNNY     56  48  74 SE8       29.97S
DANBURY        SUNNY     58  47  66 CALM      29.99F
WTRBRY/OXFORD  SUNNY     57  46  67 VRB3      29.99F
BRIDGEPORT     SUNNY     56  48  74 SW8       29.99S
MERIDEN        SUNNY     58  47  66 CALM      29.98S
NEW HAVEN      SUNNY     56  47  71 W3        29.98S
CHESTER        FAIR      61  46  59 NW5       29.98S
GROTON         SUNNY     48  44  86 S8        29.96S
WILLIMANTIC    SUNNY     56  47  71 CALM      29.97S

 IN RI

CITY           SKY/WX    TMP DP  RH WIND       PRES   REMARKS
PROVIDENCE     SUNNY     58  46  64 CALM      29.95F
BLOCK ISLAND   SUNNY     55  46  71 W9        29.97S
WESTERLY       SUNNY     55  48  77 W6        29.97S

 IN MA

CITY           SKY/WX    TMP DP  RH WIND       PRES   REMARKS
BOSTON         SUNNY     59  44  57 NW6       29.94F
WORCESTER      SUNNY     57  42  57 W10       29.95S
WESTFIELD      SUNNY     59  46  62 S3        29.96S
PROVINCETOWN   SUNNY     52  43  71 NW6       29.95F
NANTUCKET      SUNNY     57  47  69 CALM      29.94S
$$

ANZ330-335-338-340-345-350-353-355-181400-
COASTAL MARINE OBSERVATIONS


STATION/POSITION TIME  SKY/WX   TEMP    WIND        PRES    VSBY  WAVE
                                AIR SEA DIR/SP/G                  HT/PER
                 (UTC)          (F)     (DEG/KT/KT) (MB)    (MI)  (FT/S)
NY HARB ENTRANCE 1250            52 47  270/  6/  6 1015.7          3/ 6
4S FIRE IS       1203               44                N/A           3/ 7
20S FIRE ISLAND  1150               44              1016.2          3/ 6
23SW MTP         1150                                 N/A           3/ 8
HUDSON CANYON    NOT AVBL
EXECUTION ROCKS  NOT AVBL
WESTERN LI SOUND NOT AVBL
CENTRAL LI SOUND NOT AVBL
EASTERN LI SOUND 1200            45     220/  6/  6   N/A
ROBBINS REEF     1200            58     270/  6/  7 1014.9
$$


>>>>>>>>>>>>>>>>>>>>>>>>>>>> KEY <<<<<<<<<<<<<<<<<<<<<<<<<<<
>                                                          <
>     SKY/WX - SKY CONDITION/PRESENT WEATHER               <
>     TMP    - TEMPERATURE IN FAHRENHEIT                   <
>     DP     - DEWPOINT IN FAHRENHEIT                      <
>     RH     - RELATIVE HUMIDITY IN PERCENT                <
>     WIND   - DIRECTION AND SPEED IN MPH                  <
>     PRES   - MEAN SEA LEVEL PRESSURE IN INCHES OF HG     <
>     WCI    - WIND CHILL INDEX                            <
>     VSB    - VISIBILITY IN MILES                         <
>     HX     - HEAT INDEX                                  <
>     TC     - TEMPERATURE IN CELSIUS                      <
>     VRB    - VARIABLE WIND DIRECTION                     <
>                                                          <
>>>>>>>>>>>>>>>>>>>>>>>>>>>> KEY <<<<<<<<<<<<<<<<<<<<<<<<<<<




USA.gov is the U.S. government's official web portal to all federal, state and local government web resources and services.